Regional Weather Roundup
Issued by NWS Goodland, KS

Home | Current Version | Previous Version | Text Only | Print | Product List | Glossary On
Versions: 1 2 3 4 5 6 7 8 9 10 11 12 13 14 15 16 17 18 19 20 21 22 23 24 25 26 27 28 29 30 31 32 33 34 35 36 37 38 39 40 41 42 43 44 45 46 47 48 49 50
000
ASUS43 KGLD 111408
RWRGLD

GOODLAND FORECAST AREA HOURLY WEATHER ROUNDUP
NATIONAL WEATHER SERVICE GOODLAND KS
700 AM MST SUN DEC 11 2016

...OFFICIAL OBSERVATIONS...

CITY           SKY/WX    TMP DP  RH WIND       PRES   REMARKS
GOODLAND KS    CLOUDY    26  21  81 N10       29.82R WCI  16
HILL CITY KS   CLOUDY    28  22  78 N13       29.84  WCI  17
IMPERIAL NEB   CLOUDY    30  20  66 N14       29.85R WCI  19
MCCOOK NEB     CLOUDY    28  21  75 N9        29.85R
AKRON CO       LGT SNOW  29  27  92 NE7       29.83S FOG
BURLINGTON CO  CLOUDY    29  21  72 N10       29.82R WCI  20
LIMON CO       CLOUDY    26  23  88 VRB7      29.83R
$$

...UNOFFICIAL OBSERVATIONS...

CITY           SKY/WX    TMP DP  RH WIND       PRES   REMARKS
COLBY KS       MOCLDY    27  25  93 NW9       29.84R
LENORA KS        N/A     25  32 100 MISG        N/A
NORTON KS      MOCLDY    25  18  74 NW15      29.83R WCI  12
SHARON SPRINGS   N/A     31  25  77 N17G24      N/A  WCI  20
TRENTON NEB      N/A     30  32 100 N12         N/A
KIT CARSON CO    N/A     32  24  71 MISG        N/A
YUMA CO        FLURRIES  30  28  93 N10       29.85R
$$




USA.gov is the U.S. government's official web portal to all federal, state and local government web resources and services.